Volver al catálogo

OPS 7613

P/L 5

ActivoMilitarLEO
NORAD 4247·PAYLOAD·🇺🇸 United States

Lanzado Sep 30, 1969 desde Vandenberg Space Force Base

Loading…

Próximos Pases (próximas 24 horas)

TLE

ActualizadoSource: Space-Track

Época: Sep 14, 2026, 11:48 UTC

1 04247U 69082F   26257.49172182  .00000008  00000-0  44023-4 0  9993
2 04247  70.0124 271.6908 0020160   4.4997 355.6286 13.96004268898872

Sigue OPS 7613 en tiempo real con AllMySat

Download on the App Store